Wind_Speed
32 33 30 30 25 21 22 16 7 17 28 10 6 10 13 7 13 11 6 5 7 10 8 13 11 9 8 6 9 8 4 3 8 13 7 4 8 14 13 9 15 12 7 11
34 34 34 33 29 27 26 9 11 19 30 8 6 9 16 9 13 14 9 8 5 1 7 4 7 8 6 6 7 2 6 6 7 12 10 7 8 7 4 8 9 14 11 9
35 35 38 37 33 31 28 9 4 6 18 17 18 19 16 12 16 13 8 6 6 7 6 5 9 9 6 7 5 6 1 7 9 9 11 7 9 11 11 12 8 14 19 22
39 37 40 41 36 36 34 15 9 14 7 12 9 15 11 17 13 14 15 8 11 10 8 10 9 9 9 9 9 6 4 8 10 12 13 14 16 16 16 18 18 19 23 22
43 39 43 45 42 38 40 16 11 20 13 29 18 11 13 21 22 16 15 13 15 12 12 11 10 13 10 10 12 10 9 6 4 8 13 16 19 14 18 22 22 23 24 25
38 41 41 50 46 44 18 24 24 9 19 19 14 12 11 17 12 8 13 15 11 11 14 14 1 3 3 3 8 9 9 6 8 13 10 10 14 8 16 18 17 18 18 21
43 40 43 45 48 49 27 22 21 14 8 13 20 24 21 12 17 10 11 11 12 5 7 6 4 7 9 12 12 12 9 10 9 10 11 15 10 6 8 12 15 18 17 12
41 42 43 52 47 49 36 25 20 14 7 13 12 11 18 14 12 9 10 8 3 8 8 5 5 7 9 15 18 17 16 12 8 10 10 14 12 16 14 7 16 17 8 9
41 38 48 42 46 50 42 25 19 15 11 9 12 13 15 7 10 9 7 8 10 8 6 5 9 7 10 6 5 13 17 15 11 10 12 10 5 2 4 8 14 7 3 6
42 43 47 49 48 45 43 33 30 15 7 7 20 13 16 13 11 8 13 14 8 7 6 7 8 10 6 8 10 7 11 13 14 12 12 12 10 4 3 7 3 3 7 10
41 38 46 51 46 46 45 29 27 19 6 10 13 12 21 16 19 8 15 9 8 9 8 7 7 6 8 11 12 11 12 10 10 12 15 20 4 4 7 8 9 11 14 18
38 35 46 50 46 43 42 28 26 24 14 7 9 10 11 15 14 7 17 3 15 11 8 7 6 6 6 11 10 13 12 11 9 8 5 2 4 8 16 21 19 17 16 15
39 41 45 43 46 45 41 29 25 19 10 8 8 11 14 13 9 10 8 9 5 5 5 3 3 5 4 9 11 13 12 14 9 8 6 12 13 17 20 19 13 14 13 12
44 39 40 40 39 39 36 33 27 13 12 4 8 9 14 13 10 8 9 3 5 4 7 6 4 5 5 8 8 8 8 5 9 14 15 17 19 14 11 12 11 11 10 9
53 48 50 45 39 31 29 24 20 15 5 6 9 10 15 12 12 11 8 8 6 7 6 5 6 10 6 10 11 10 16 13 11 12 18 18 15 15 15 12 12 11 7 8
42 38 38 35 31 30 25 10 13 18 9 6 4 5 13 15 17 16 13 12 11 11 6 7 11 16 12 7 12 19 27 29 31 26 29 25 17 14 14 13 10 8 8 11
38 37 36 35 29 17 8 6 10 21 14 4 4 6 8 15 14 14 16 15 12 12 7 9 17 14 11 11 15 22 25 24 24 26 24 22 24 18 12 12 9 10 10 11
34 33 30 29 23 16 11 10 14 19 7 2 3 4 8 15 9 7 15 12 13 8 12 12 12 16 18 10 17 25 28 28 29 31 31 31 27 13 12 12 12 12 12 13
31 30 29 24 12 7 9 11 16 13 4 5 5 7 5 16 13 9 8 8 4 9 6 12 10 11 11 10 19 25 27 25 24 21 20 17 15 14 14 14 14 14 13 15
30 27 7 5 10 12 16 8 5 4 4 6 6 13 5 15 16 10 7 5 4 6 8 11 7 15 34 36 39 36 33 29 24 22 18 15 18 18 17 17 15 14 15 16
22 7 4 11 20 11 6 6 7 10 5 9 14 18 10 14 10 7 9 4 4 4 6 6 4 8 16 26 30 31 31 31 31 25 19 16 18 17 17 16 16 15 16 18
15 13 19 20 7 5 5 6 5 6 7 11 16 21 17 13 9 6 5 4 4 6 2 3 4 9 14 11 12 12 13 16 19 22 17 14 14 16 16 17 18 17 18 21
18 8 6 6 5 6 6 9 4 5 6 12 20 12 14 6 8 4 4 5 6 3 3 4 6 11 4 7 9 9 8 7 9 13 14 14 13 14 17 21 21 21 22 20
5 7 6 4 6 4 4 7 8 9 12 19 21 17 8 7 6 4 4 5 3 4 5 8 6 5 6 7 6 4 4 7 14 15 17 18 18 17 18 17 18 19 20 20
5 6 5 7 5 11 10 8 13 13 18 19 14 10 7 6 4 4 5 4 6 6 11 7 3 4 6 5 2 4 7 12 14 15 16 14 15 17 19 18 18 18 18 18
4 4 2 8 12 7 7 10 12 14 17 14 6 3 2 6 4 7 8 7 6 3 4 1 2 5 4 3 5 7 11 12 13 13 14 15 16 18 19 19 18 16 15 15
3 2 4 8 12 12 11 16 17 17 18 6 4 6 6 4 5 6 5 7 6 3 1 3 5 4 5 9 11 11 11 11 11 13 15 16 16 16 17 17 17 15 15 13
Wind_Direction
234 228 225 220 220 214 207 210 208 196 192 184 186 211 213 304 198 194 192 267 232 229 162 212 215 215 183 185 175 197 175 226 250 242 222 296 291 284 279 261 271 276 296 269
231 229 221 217 213 209 192 204 194 184 180 200 213 221 229 226 209 196 184 184 215 176 185 180 192 207 91 171 200 214 170 225 252 234 207 215 254 234 276 306 298 267 272 270
232 229 219 212 209 206 196 189 184 160 197 232 227 199 215 205 201 213 189 172 182 174 170 191 195 186 166 188 176 89 86 251 255 272 309 311 275 268 244 252 254 275 263 282
231 227 218 209 203 199 200 211 211 185 182 216 222 211 209 206 193 213 203 187 207 196 207 205 207 197 157 189 143 205 245 254 269 275 285 284 277 270 268 261 263 259 280 280
231 223 219 209 200 197 200 189 225 193 213 208 210 200 211 211 211 185 204 216 205 210 221 210 214 209 195 199 190 226 233 248 283 285 275 269 268 263 264 260 266 270 278 281
231 229 226 206 195 193 199 205 207 234 216 184 187 203 197 216 168 215 232 216 204 218 229 245 170 288 252 221 217 210 222 226 236 269 271 280 260 236 242 263 264 266 271 284
239 229 219 201 200 196 197 193 187 211 218 211 202 204 205 202 198 171 187 196 199 123 117 114 173 228 233 236 230 242 232 234 250 271 287 273 277 218 246 256 266 270 281 335
234 227 218 205 207 197 198 185 199 205 203 203 197 202 210 191 187 182 193 190 179 139 165 200 214 211 227 233 233 230 228 241 254 252 254 267 264 249 251 308 296 293 318 318
222 226 211 204 203 197 197 194 185 210 219 204 181 173 166 171 186 165 168 134 150 180 219 227 228 223 215 190 190 213 221 224 237 233 249 266 246 193 115 313 283 44 343 351
214 221 209 195 199 195 197 196 196 180 203 209 177 177 176 168 202 202 188 174 182 193 202 223 233 234 237 236 212 172 206 211 222 236 256 263 278 68 21 253 344 317 327 317
214 209 198 192 190 195 192 195 200 182 124 151 183 163 168 183 194 181 150 160 202 189 220 226 220 244 235 231 256 224 194 205 220 234 251 262 257 113 235 333 300 288 300 314
197 199 196 192 184 193 196 170 184 178 134 164 134 153 155 189 202 197 178 290 182 191 207 222 238 222 232 236 242 228 251 229 244 233 245 61 210 254 277 288 293 301 310 307
191 199 191 181 184 188 191 165 150 163 125 137 177 188 189 184 190 192 190 211 207 218 226 275 279 254 270 236 240 257 240 240 249 274 277 284 299 297 296 296 291 291 293 288
181 180 174 180 183 185 185 161 159 145 127 149 187 171 186 189 201 202 212 210 179 211 209 234 239 236 230 265 282 264 267 253 256 254 255 273 279 283 311 306 279 268 298 257
175 167 158 161 161 156 148 151 161 158 149 166 146 180 199 197 191 184 196 214 222 226 233 232 238 251 277 262 268 263 260 259 252 256 255 257 279 301 294 283 264 261 234 227
150 150 147 145 143 139 133 107 165 172 134 120 145 130 180 197 209 219 227 231 228 252 259 262 262 255 252 260 253 248 245 252 259 272 269 266 282 286 277 257 243 221 210 209
126 130 139 146 141 127 107 112 154 178 155 98 140 158 170 186 197 215 222 220 227 240 244 241 250 238 237 255 256 263 261 256 258 261 262 259 275 273 269 236 215 205 192 200
132 135 135 137 141 130 81 83 152 145 139 126 184 133 149 176 185 201 213 218 225 230 242 252 253 250 248 252 250 252 253 257 260 261 261 267 270 261 236 217 197 189 190 189
131 134 133 128 126 120 126 109 141 151 169 196 206 172 170 178 202 198 181 208 224 236 237 234 244 234 230 243 246 246 253 257 263 261 262 257 234 233 221 210 202 197 192 187
135 126 102 96 140 147 138 121 132 195 228 234 218 206 158 180 179 189 171 196 233 241 231 234 234 244 251 256 256 257 259 261 262 265 252 228 224 219 212 206 204 198 192 184
134 121 93 139 145 142 161 150 185 191 210 212 214 202 164 186 186 194 209 191 236 243 235 214 243 258 250 257 257 262 261 258 254 252 252 236 233 217 198 193 193 189 184 181
155 141 126 135 170 177 188 191 189 214 217 188 196 185 189 178 188 205 196 220 232 245 150 227 255 264 272 280 279 279 279 260 248 237 224 223 208 196 184 183 182 182 180 179
132 138 152 174 176 202 211 182 215 203 170 186 175 176 163 139 187 216 201 225 237 301 226 241 259 272 261 311 309 299 295 271 237 193 192 190 178 173 173 179 187 188 190 190
129 164 143 208 180 205 209 209 195 172 174 175 174 174 177 168 176 210 231 228 230 238 229 248 264 20 341 310 296 288 243 186 169 165 166 171 177 179 178 188 189 186 182 179
214 172 189 197 211 182 206 201 170 159 157 162 150 166 187 173 186 205 231 231 230 218 241 271 34 329 310 293 255 192 179 176 173 172 175 178 173 169 164 171 175 176 178 180
233 221 226 210 181 187 189 212 197 177 159 160 182 159 230 210 209 203 211 231 228 219 249 21 325 314 280 220 190 158 156 159 160 163 165 161 161 163 164 166 169 172 179 182
265 246 258 264 223 200 195 197 196 183 182 195 197 173 232 213 216 208 224 238 264 342 350 293 292 272 215 174 157 162 167 169 168 164 163 164 165 165 165 165 167 173 176 183
Height
1456 1461 1466 1471 1476 1481 1485 1487 1484 1485 1488 1494 1496 1490 1484 1482 1477 1484 1484 1481 1480 1478 1477 1482 1482 1482 1484 1491 1494 1493 1493 1492 1496 1487 1482 1485 1490 1491 1491 1497 1496 1485 1495 1484
1448 1452 1458 1464 1470 1475 1480 1480 1481 1482 1486 1485 1483 1482 1484 1485 1481 1479 1482 1482 1485 1485 1484 1490 1486 1484 1493 1494 1493 1491 1495 1493 1496 1485 1484 1488 1491 1486 1490 1493 1495 1498 1502 1484
1440 1444 1448 1455 1462 1469 1476 1477 1474 1478 1479 1477 1473 1475 1480 1480 1479 1477 1482 1482 1485 1484 1483 1486 1487 1490 1495 1496 1494 1499 1500 1495 1494 1492 1484 1485 1489 1485 1487 1490 1499 1494 1482 1480
1431 1435 1439 1445 1454 1460 1470 1468 1462 1462 1469 1472 1473 1470 1471 1472 1474 1478 1481 1482 1481 1481 1485 1483 1485 1487 1491 1494 1498 1499 1499 1498 1494 1490 1489 1490 1489 1489 1490 1488 1489 1491 1477 1482
1420 1425 1427 1436 1445 1454 1458 1458 1456 1454 1453 1464 1469 1469 1470 1472 1471 1472 1476 1475 1477 1479 1480 1482 1484 1483 1486 1487 1491 1495 1495 1499 1502 1503 1495 1492 1490 1491 1489 1488 1487 1485 1479 1472
1410 1416 1421 1425 1435 1444 1445 1448 1453 1454 1449 1454 1465 1464 1465 1465 1469 1475 1478 1476 1476 1478 1479 1481 1482 1484 1485 1487 1489 1492 1493 1495 1495 1491 1482 1480 1482 1484 1484 1479 1477 1475 1470 1463
1401 1406 1412 1417 1425 1433 1438 1443 1449 1450 1444 1446 1451 1457 1462 1469 1472 1473 1477 1478 1476 1479 1482 1486 1490 1492 1491 1491 1490 1490 1489 1493 1493 1489 1486 1490 1471 1470 1470 1471 1469 1466 1460 1466
1392 1396 1403 1410 1418 1428 1433 1441 1445 1445 1444 1442 1447 1452 1453 1463 1465 1471 1473 1475 1477 1480 1485 1486 1485 1485 1485 1484 1485 1486 1490 1491 1491 1488 1479 1469 1465 1462 1463 1465 1468 1464 1465 1467
1383 1388 1393 1402 1411 1421 1431 1438 1442 1446 1445 1444 1449 1454 1458 1464 1466 1471 1476 1479 1480 1483 1482 1482 1476 1472 1469 1466 1472 1476 1483 1487 1488 1485 1483 1476 1460 1461 1465 1471 1466 1467 1469 1471
1376 1382 1386 1397 1405 1417 1427 1433 1439 1445 1447 1447 1452 1457 1460 1466 1473 1470 1473 1478 1482 1484 1479 1479 1472 1468 1462 1465 1466 1476 1478 1479 1481 1480 1477 1465 1459 1463 1468 1474 1471 1473 1473 1472
1368 1377 1381 1391 1402 1413 1421 1429 1436 1443 1448 1452 1454 1455 1455 1464 1464 1464 1469 1478 1479 1480 1479 1473 1466 1465 1460 1463 1460 1457 1465 1470 1471 1473 1472 1468 1458 1465 1469 1465 1467 1469 1469 1470
1364 1371 1379 1388 1398 1410 1417 1427 1435 1443 1446 1452 1452 1455 1457 1463 1466 1466 1469 1466 1466 1470 1471 1465 1461 1459 1460 1458 1460 1456 1459 1456 1458 1457 1456 1459 1462 1463 1464 1464 1463 1466 1467 1467
1360 1368 1376 1385 1396 1406 1415 1425 1432 1439 1447 1453 1455 1456 1458 1461 1464 1465 1467 1469 1469 1469 1470 1470 1466 1465 1458 1456 1455 1455 1454 1458 1457 1461 1459 1458 1458 1460 1460 1459 1462 1465 1465 1464
1359 1370 1376 1385 1396 1405 1413 1421 1431 1439 1445 1451 1453 1455 1457 1459 1462 1464 1466 1467 1468 1470 1471 1470 1468 1467 1463 1459 1456 1459 1455 1458 1457 1456 1456 1457 1458 1457 1457 1458 1459 1461 1460 1461
1358 1370 1378 1388 1398 1405 1414 1425 1433 1438 1443 1445 1450 1453 1455 1458 1461 1463 1466 1467 1468 1469 1469 1468 1466 1464 1467 1463 1462 1456 1457 1454 1456 1452 1454 1453 1453 1455 1455 1455 1456 1457 1456 1458
1360 1371 1380 1390 1399 1408 1414 1423 1430 1433 1439 1442 1444 1449 1452 1456 1459 1462 1464 1465 1467 1468 1467 1466 1463 1464 1466 1460 1450 1452 1454 1453 1450 1447 1449 1448 1449 1450 1451 1451 1451 1452 1452 1454
1368 1378 1388 1398 1407 1414 1418 1423 1428 1433 1438 1443 1446 1447 1450 1453 1458 1460 1461 1463 1465 1466 1466 1462 1462 1462 1462 1455 1446 1450 1447 1444 1443 1442 1442 1442 1444 1444 1446 1447 1447 1448 1449 1453
1380 1388 1396 1405 1410 1417 1422 1425 1428 1436 1442 1444 1444 1444 1449 1452 1455 1458 1459 1460 1462 1462 1460 1457 1453 1452 1452 1439 1439 1440 1440 1440 1438 1437 1436 1435 1436 1439 1441 1443 1444 1445 1447 1450
1389 1396 1403 1411 1418 1423 1428 1431 1435 1438 1444 1443 1442 1436 1441 1448 1451 1453 1457 1458 1457 1455 1450 1450 1450 1442 1430 1427 1430 1431 1430 1430 1429 1428 1427 1428 1431 1434 1437 1439 1441 1443 1445 1448
1394 1402 1408 1415 1421 1425 1430 1436 1439 1442 1441 1440 1435 1432 1436 1442 1446 1451 1456 1457 1452 1442 1438 1438 1435 1424 1423 1423 1418 1418 1420 1421 1422 1422 1420 1425 1427 1429 1431 1434 1438 1440 1443 1445
1400 1407 1414 1418 1423 1429 1432 1436 1439 1438 1437 1432 1428 1426 1430 1438 1441 1444 1446 1446 1442 1436 1426 1427 1417 1410 1407 1407 1407 1407 1409 1410 1412 1414 1416 1420 1423 1425 1427 1430 1434 1437 1440 1443
1404 1407 1414 1422 1425 1426 1428 1426 1426 1424 1417 1419 1417 1420 1426 1435 1439 1441 1443 1439 1434 1427 1423 1426 1411 1402 1400 1400 1400 1400 1401 1401 1402 1406 1410 1415 1418 1420 1422 1426 1430 1434 1437 1440
1407 1412 1415 1417 1420 1419 1417 1413 1417 1411 1411 1412 1413 1417 1423 1432 1436 1437 1436 1436 1428 1423 1422 1412 1399 1399 1399 1401 1401 1400 1398 1398 1399 1402 1407 1412 1415 1417 1420 1423 1427 1431 1434 1438
1406 1409 1412 1412 1413 1412 1409 1407 1405 1407 1409 1411 1413 1418 1422 1426 1432 1432 1432 1423 1421 1417 1411 1399 1394 1399 1399 1401 1400 1398 1397 1397 1399 1402 1406 1409 1412 1415 1418 1422 1426 1429 1433 1437
1403 1402 1402 1403 1404 1404 1404 1405 1405 1407 1408 1411 1414 1418 1419 1422 1426 1425 1421 1418 1411 1400 1395 1392 1398 1400 1400 1399 1399 1398 1398 1400 1402 1404 1407 1410 1412 1414 1418 1422 1426 1430 1433 1437
1400 1398 1398 1397 1399 1403 1405 1405 1406 1407 1408 1411 1414 1415 1418 1415 1414 1411 1408 1400 1393 1391 1392 1399 1400 1399 1398 1398 1398 1398 1400 1402 1404 1406 1409 1411 1413 1416 1419 1423 1427 1430 1433 1436
1399 1396 1396 1397 1396 1397 1399 1401 1402 1404 1407 1408 1408 1412 1412 1405 1399 1399 1395 1393 1392 1393 1397 1399 1398 1397 1397 1397 1398 1401 1403 1404 1406 1408 1410 1413 1415 1418 1421 1424 1427 1430 1433 1436